Startpagina
METAR-TAF:

METAR-TAF

Vliegvelden :

Câmpia Turzii, Roemenië

breedte: 46-30-12N, lengte: 023-53-07E, hoogte: 324 m

Actueel weer

Dit bericht is 40 minuten geleden gemaakt, om 11:00 UTC
Wind 3 kt uit variabele richting
Temperatuur 21°C
Vochtigheid 56%
Druk 1019 hPa
Zicht 10 km of meer
Weinig wolken op 2500 ft
Gebroken wolken op 4000 ft

METAR: LRCT 201100Z VRB03KT 9999 FEW025 BKN040 21/12 Q1019 BLU BLU

Tijdstip: 14:40 (11:40 UTC)


TAF: ontbreekt

Waarnemingen en weersverwachtingen van meer dan 4000 vliegvelden (METAR en TAF).

De beschikbare stations zijn de gele en rode punten op de kaart.

Ga met uw muis naar het station om de naam te zien.

Klik dan om waarnemingen en weersverwachtingen te zien.

kaart wijzigen: klik op de groene knoppen met een zwart kruis om in te zoomen, op de groene knop met een streepje om uit te zoomen of op de groene pijlen voor aangrenzende kaarten.


METAR-TAF: